Regional Weather Roundup
Issued by NWS

Home | Current Version | Previous Version | Text Only | Print | Product List | Glossary On
Versions: 1 2 3 4 5 6 7 8 9 10 11 12 13 14 15 16 17 18 19 20 21 22 23 24 25 26 27 28 29 30 31 32 33 34
000
ASUS45 KREV 221410
RWRNV
NEVADA REGIONAL WEATHER ROUNDUP
NATIONAL WEATHER SERVICE RENO NV
700 AM PDT WED OCT 22 2014

NOTE: "FAIR" INDICATES FEW OR NO CLOUDS BELOW 12,000 FEET WITH NO
SIGNIFICANT WEATHER AND/OR OBSTRUCTIONS TO VISIBILITY.

NVZ001-003-004-221500-
WESTERN NEVADA

CITY           SKY/WX    TMP DP  RH WIND       PRES   REMARKS
RENO           PTCLDY    39  30  70 CALM      30.14R
CARSON CITY    FAIR      36  25  64 CALM      30.15S
MINDEN         FAIR      30  19  64 CALM      30.15
SLIDE MTN        N/A     36  23  60 W13         N/A
FALLON         MOCLDY    32  18  56 NE6       30.13R
LOVELOCK       MOCLDY    30  17  58 CALM      30.13R
HAWTHORNE      CLEAR     43  27  52 CALM      30.14R
$$

NVZ002-CAZ072-073-221500-
NORTHERN AND CENTRAL SIERRA

CITY           SKY/WX    TMP DP  RH WIND       PRES   REMARKS
S. LAKE TAHOE  MOCLDY    32  23  69 CALM      30.16R
TRUCKEE        PTCLDY    25  21  86 CALM      30.17S
SQUAW VLY 8000 NOT AVBL
SUSANVILLE     CLEAR     36  32  87 W3        30.12
BLUE CANYON    MOCLDY    49   4  16 E5        30.13S
MAMMOTH LAKES  FAIR      28  16  59 CALM      30.21R
$$

NVZ030-031-036-221500-
NORTHERN NEVADA

CITY           SKY/WX    TMP DP  RH WIND       PRES   REMARKS
ELKO           MOCLDY    28  17  63 NE3       30.18R
WINNEMUCCA     MOCLDY    24  18  77 SE3       30.14R
WENDOVER       MOCLDY    39  28  65 NW3       30.18R
$$

NVZ035-037-221500-
CENTRAL NEVADA

CITY           SKY/WX    TMP DP  RH WIND       PRES   REMARKS
ELY            MOCLDY    26  12  55 S10       30.20R
EUREKA           N/A     26  11  52 W5        30.18R
$$

NVZ013-014-221500-
SOUTH CENTRAL NEVADA

CITY           SKY/WX    TMP DP  RH WIND       PRES   REMARKS
TONOPAH        PTCLDY    37   8  30 N7        30.16R
$$

NVZ017-020-022-221500-
SOUTHERN NEVADA

CITY           SKY/WX    TMP DP  RH WIND       PRES   REMARKS
LAS VEGAS      PTCLDY    62  27  26 S9        29.95R
N. LAS VEGAS   CLEAR     63  25  23 N8        29.98R
NELLIS AFB     CLEAR     59  27  30 W3        29.98R
HENDERSON      CLEAR     56  25  30 S3        30.01R
MERCURY        PTCLDY    57  16  20 NE6       30.04R
$$



USA.gov is the U.S. government's official web portal to all federal, state and local government web resources and services.